Back to catalog

THORAD AGENA D DEB

AliveLEO
NORAD 42547·DEBRIS·🇺🇸 United States

Launched Apr 8, 1970 from Vandenberg Space Force Base

Loading…

Next Passes (next 24 hours)

TLE

AgingSource: Space-Track

Epoch: Sep 12, 2026, 00:13 UTC

1 42547U 70025TD  26255.00902901  .00000795  00000-0  74657-3 0  9990
2 42547 100.1762 274.9950 0013017 234.0885 125.9059 13.85092621644618

Track THORAD AGENA D DEB in real time with AllMySat

Download on the App Store